WORLDVIEW-3 (WV-3)

Last updated on Mon Sep 21 2026 00:02:45 GMT+0000 (Coordinated Universal Time)

1 40115U 14048A 26263.57366164 .00000432 00000+0 56753-4 0 9993 2 40115 97.8488 337.0559 0002004 47.5284 312.6100 14.85145983656069
UTC large
Height (km)
Speed (km/s)
/
Latitude / Longitude
Inclination (degrees)
Orbital Period (minutes)
Azimuth
Elevation
Range (km)
Doppler Factor

Next 0 passes for location: London (51.5072 / 0.1276)

No passes found over London.
WORLDVIEW-3 (WV-3)